Location: Cella
(44.7333°N, 10.5667°E)
Time: 00:16:15
(UTC+00:00)

COSMOS 1867 COOLANT - Pass Details

Date: 28 September 2021
Orbit: 770 x 802 km, 65.0° (Epoch: 21 October)

Event Time Altitude Azimuth Distance (km) Brightness Sun altitude
Rises 21:27:16 0° 310° (NW) 3,317 ? -42.2°
Reaches altitude 10° 21:30:29 10° 292° (WNW) 2,379 ? -42.5°
Enters shadow 21:30:48 11° 289° (WNW) 2,305 ? -42.5°
